loading
DOY 175 | 2024-06-23T10:28:52Z

THOR ABLESTAR DEB, 649

Orbit data source: Space-Track

THOR ABLESTAR DEB, 649 is space debris in LEO originally from a launch on Thu, 29 Jun 1961 UTC launched from the Air Force Eastern Test Range (AFETR). Debris objects in space refer to the collection of defunct objects orbiting the Earth. Examples of debris include non-operational satellites, rocket bodies, and fragments generated from explosions, collisions, or faulty payload assembly.

Loading next visibility...
Loading greatness...
THOR ABLESTAR DEB details
NORAD ID649
COSPAR ID
1961-015HA
Orbit
LEO
Last TLE update7 hours ago
Origin
Flag of USUSAF SSD (US)
ManufacturerUnknown
BusUnknown
MotorUnknown
MassWet unknown, Dry mass unknown
Launch date (UTC)
1961-06-29 (63 years ago)
Launch vehicleUnknown
Launch site
Air Force Eastern Test Range (AFETR)
Object type
Payload
Rocket body
Debris
Radar Cross SectionSmall (<0.1 m²)
Predictive object data (real-time)
Latitude-52.34995°
Longitude72.07437°
Altitude1,785.924 km
Speed6.823 km/s
Apparent Right ascension06h 09m 25s
Apparent Declination-59° 25' 58"
Sunlit
Object is in daylight
Predictive observer data (real-time)
Local Sidereal Time21:36:44
Azimuth138.926° SSE
Elevation-52.518°
Doppler factor1
Orbital elements
Apogee1,834.495 km
Perigee967.758 km
Semi-major axis7,779.263 km
Eccentricity0.0557082
Inclination66.2647°
RAAN187.9067°
Arg. of periapsis28.5467°
True anomaly44.20145°
Mean anomaly39.8818°
Mean motion3.16326 °/min
BSTAR0.00047352
Period113.81 mins
Definitive object data (Epoch: 2024-06-23T03:52:05.723Z)
Latitude61.06898°
Longitude-89.61574°
Altitude1,090.092 km
Speed7.463 km/s
True Right ascension16h 00m 53s
True Declination60° 55' 47"
Sunlit
Object was in daylight at TLE epoch
TLE from 7 hours ago
0 THOR ABLESTAR DEB
1   649U 61015HA  24175.16117735  .00000104  00000-0  47352-3 0  9991
2   649  66.2647 187.9067 0557082  28.5467  39.8818 12.64949246901542
Epoch: 2024-06-23T03:52Z
No data available

THOR ABLESTAR DEB Visibility forecast

Observer location: 39.9160978°, -105.1181434, 0m alt.

THOR ABLESTAR DEB is not visible in the next 10 days
Span
Click to sort rows by Start time (UTC) header in descending order
Start Az.
Max El. time (UTC)
Max El. Az.
Max El.
End time (UTC)
End Az.